Date,TemperatureHighF,TemperatureAvgF,TemperatureLowF,DewpointHighF,DewpointAvgF,DewpointLowF,HumidityHigh,HumidityAvg,HumidityLow,PressureMaxIn,PressureMinIn,WindSpeedMaxMPH,WindSpeedAvgMPH,GustSpeedMaxMPH,PrecipitationSumIn
2013-7-1,88.6,81.8,76.0,-99.9,-99.9,-99.9,38,38,38,30.00,29.87,30,6,30,0.08
2013-7-2,88.2,82.7,77.7,-99.9,-99.9,-99.9,38,38,38,30.07,29.93,19,6,19,0.00
2013-7-3,88.8,81.5,75.3,-99.9,-99.9,-99.9,38,38,38,30.09,30.01,23,4,26,0.66
2013-7-4,88.4,83.0,77.2,-99.9,-99.9,-99.9,38,38,38,30.11,30.03,21,3,21,0.08
2013-7-5,86.7,82.6,78.1,-99.9,-99.9,-99.9,38,38,38,30.10,30.02,21,4,22,0.25
2013-7-6,87.2,82.6,80.5,-99.9,-99.9,-99.9,38,38,38,30.08,30.00,18,4,18,0.23
2013-7-7,87.4,82.8,79.0,-99.9,-99.9,-99.9,38,38,38,30.06,29.99,16,3,16,0.09
2013-7-8,88.2,83.2,79.9,-99.9,-99.9,-99.9,38,38,38,30.11,30.03,12,1,12,0.00
2013-7-9,85.9,81.3,77.0,-99.9,-99.9,-99.9,38,38,38,30.11,30.00,18,1,18,0.56
2013-7-10,87.0,80.4,73.7,-99.9,-99.9,-99.9,38,38,38,30.05,29.95,20,3,20,0.01
2013-7-11,90.3,82.7,77.4,-99.9,-99.9,-99.9,38,38,38,30.00,29.90,15,2,16,0.00
2013-7-12,88.2,80.2,73.9,-99.9,-99.9,-99.9,38,38,38,29.92,29.85,17,1,22,1.02
2013-7-13,84.1,76.9,73.7,-99.9,-99.9,-99.9,38,38,38,29.98,29.88,17,1,17,0.27
2013-7-14,86.5,78.2,73.2,-99.9,-99.9,-99.9,38,38,38,30.06,29.94,18,2,18,0.11
2013-7-15,85.9,79.3,73.9,-99.9,-99.9,-99.9,38,38,38,30.06,29.98,16,1,17,0.23
2013-7-16,83.4,79.6,72.5,-99.9,-99.9,-99.9,38,38,38,30.12,30.02,28,4,28,1.23
2013-7-17,82.6,79.7,76.3,-99.9,-99.9,-99.9,38,38,38,30.09,30.01,27,3,27,0.30
2013-7-18,85.9,78.1,73.5,-99.9,-99.9,-99.9,38,38,38,30.08,30.01,22,1,22,0.74
2013-7-19,83.8,79.8,73.9,-99.9,-99.9,-99.9,38,38,38,30.08,30.01,17,3,17,0.01
2013-7-20,87.6,82.6,77.7,-99.9,-99.9,-99.9,38,38,38,30.08,29.99,27,4,27,0.14
2013-7-21,87.6,80.8,73.0,-99.9,-99.9,-99.9,38,38,38,30.11,30.01,20,2,20,0.15
2013-7-22,89.3,83.0,75.1,-99.9,-99.9,-99.9,38,38,38,30.11,30.03,20,5,20,0.00
2013-7-23,89.7,83.8,78.6,-99.9,-99.9,-99.9,38,38,38,30.06,29.92,20,4,20,0.00
2013-7-24,92.7,83.9,77.0,-99.9,-99.9,-99.9,38,38,38,29.97,29.86,15,2,17,0.00
2013-7-25,92.7,84.0,76.8,-99.9,-99.9,-99.9,38,38,38,29.96,29.86,17,3,19,0.02
2013-7-26,91.6,82.6,78.1,-99.9,-99.9,-99.9,38,38,38,29.97,29.89,14,3,14,0.09
2013-7-27,87.2,80.1,76.0,-99.9,-99.9,-99.9,38,38,38,29.95,29.89,9,1,13,0.05
2013-7-28,86.3,79.4,74.6,-99.9,-99.9,-99.9,38,38,38,30.02,29.90,17,1,17,2.45
2013-7-29,89.0,81.5,76.1,-99.9,-99.9,-99.9,38,38,38,30.09,29.99,13,1,17,0.00
2013-7-30,89.9,84.8,80.9,-99.9,-99.9,-99.9,38,38,38,30.12,30.04,15,1,15,0.05
2013-7-31,90.7,85.1,81.6,-99.9,-99.9,-99.9,38,38,38,30.08,29.97,15,2,15,0.00